Location: Casteau
(50.5142°N, 4.0161°E)
Time: 18:43:55
(UTC+00:00)

Tiros 1 - Pass Details

Date: 06 August 2021
Orbit: 630 x 663 km, 48.4° (Epoch: 27 September)

Event Time Altitude Azimuth Distance (km) Brightness Sun altitude
Rises 21:54:16 0° 279° (W) 2,973 11.1 -18.4°
Reaches altitude 10° 21:57:16 10° 260° (W) 2,052 9.9 -18.6°
Maximum altitude 22:00:22 18° 219° (SW) 1,599 8.9 -18.9°
Enters shadow 22:00:42 17° 214° (SSW) 1,603 8.9 -18.9°
Drops below altitude 10° 22:03:27 10° 178° (S) 2,030 - -19.1°
Sets 22:06:24 0° 159° (SSE) 2,928 - -19.3°
